S-NET A

operational
NORAD ID: 43188 Int'l Des: 2018-014 Owner: TUB Country: D
LEOCIRCULARRETROGRADESSO

关于 S-NET A

正在加载描述...

实时位置

正在加载3D地球...

即将过境

高度历史

Altitude vs Time

uPlot chart will show altitude changes over time

两行轨道根数

1 43188U 18014J 26073.29517390 .00007156 00000-0 37884-3 0 9994
2 43188 97.5449 338.8851 0008736 355.1215 4.9931 15.15700530444382
Epoch: Mar 14, 2026 • Age: 11 hours

当前状态

高度 545.0 km
速度 7.59 km/s
星下点 -62.80°S, 67.18°E
发射日期 Feb 1, 2018
运行时间 8.1 years
类型 other

技术详情

分类 Payload
质量 8.00 kg
干质量 8.00 kg
总质量 8.00 kg
长度 0.24 m
直径 0.24 m
跨度 0.24 m
形状 Box
制造商 TUB
平台类型 TUBiX10
阶段状态 In Orbit
所有者/国家 TUB/D

大型星座

Loading constellations...